sat.trackr.live / text

‹ back to catalog

YUNYAO-1 47

NORAD 63348 · 2025-059E

PAYLOAD ACTIVE UNKNOWN

§ Identity

Operator
Country
PRC
Launch date
2025-03-21
Launch site
JSC
Launch vehicle
Mass (kg)
RCS (m²)

External: N2YO · Heavens-Above · Gunter

§ Orbital elements

Epoch: 2026-09-21T22:46:26.674176Z

Period
95.26 min
Inclination
97.6123°
Eccentricity
0.0015635
Mean motion
15.11674567 rev/d
Perigee alt
520.3 km
Apogee alt
541.9 km
Semi-major
6,909.2 km
B*
1.0559e-4
RAAN
85.9082°
Arg perigee
180.8475°
Mean anomaly
179.2731°
Rev number
8,291

§ Raw data

YUNYAO-1 471 63348U 25059E   26264.94891984  .00001735  00000+0  10559-3 0  99952 63348  97.6123  85.9082 0015635 180.8475 179.2731 15.11674567 82912

JSON: /api/v1/satellites/63348 · /tle

For live sub-satellite position, see the globe view (requires WebGL).

§ Visibility from observer

Set your observer location to see the next 7 days of passes ≥ 10°. The values pass through the URL so the page stays shareable.

No JS? Fill the form by hand. The geolocation button needs JavaScript.